Regional Weather Roundup
Issued by NWS

Home | Current Version | Previous Version | Graphics & Text | Print | Product List | Glossary On
Versions: 1 2 3 4 5 6 7 8 9 10 11 12 13 14 15 16 17 18 19 20 21 22 23 24 25 26 27 28 29 30 31 32 33 34 35 36 37 38 39 40 41 42 43 44 45 46 47 48 49 50
000
ASUS43 KOAX 252202
RWRNE

WEATHER ROUNDUP FOR NEBRASKA
NATIONAL WEATHER SERVICE OMAHA NE
500 PM CDT SUN SEP 25 2016

NOTES: SATELLITE DATA IS BEING USED TO AUGMENT CLOUD COVER ABOVE
       12000 FEET.
       "FAIR" INDICATES FEW OR NO CLOUDS BELOW 12,000 FEET WITH NO
       SIGNIFICANT WEATHER AND/OR OBSTRUCTIONS TO VISIBILITY.

  * THESE STATIONS DO NOT REPORT WEATHER SUCH AS RAIN...SNOW OR FOG.

NEZ001>004-019>022-054>056-252300-
NEBRASKA PANHANDLE

CITY           SKY/WX    TMP DP  RH WIND       PRES   REMARKS
SCOTTSBLUFF    SUNNY     67  36  31 NW16G25   30.35S
ALLIANCE       SUNNY     64  32  30 NW16      30.33S
CHADRON        SUNNY     65  26  23 NW21G29   30.32F
KIMBALL        SUNNY     64  37  36 NW15G23   30.37S
SIDNEY         LGT RAIN  65  34  31 N16       30.36S
$$

NEZ057>060-069>072-079>082-252300-
SOUTHWEST NEBRASKA

CITY           SKY/WX    TMP DP  RH WIND       PRES   REMARKS
NORTH PLATTE   LGT RAIN  73  22  14 N12G28    30.26S
IMPERIAL       SUNNY     70  29  21 NW25G32   30.30S
LEXINGTON      SUNNY     71  22  16 NW17G24   30.24S
MCCOOK         SUNNY     72  21  14 NW23G32   30.26R
OGALLALA       MOSUNNY   71  32  23 NW20G30   30.31S
$$

NEZ005>010-023>029-035>040-094-252300-
NORTH CENTRAL NEBRASKA

CITY           SKY/WX    TMP DP  RH WIND       PRES   REMARKS
VALENTINE      SUNNY     66  22  18 NW20G30   30.24S
AINSWORTH      SUNNY     65  31  27 NW24G38   30.23S
BROKEN BOW     SUNNY     69  19  15 NW18G32   30.23S
O`NEILL        SUNNY     68  27  21 NW22G31   30.19S
ORD            SUNNY     69  28  21 NW16      30.19S
THEDFORD       SUNNY     68  24  19 NW18G32   30.27R
$$

NEZ041-046>049-061>064-073>077-083>087-252300-
SOUTH CENTRAL NEBRASKA

CITY           SKY/WX    TMP DP  RH WIND       PRES   REMARKS
GRAND ISLAND   SUNNY     71  31  22 NW21G28   30.19S
AURORA         SUNNY     71  33  25 NW13G21   30.18S
HASTINGS       SUNNY     71  33  24 N20G26    30.20F
HEBRON         SUNNY     73  39  29 NW13G21   30.17R
HOLDREGE       SUNNY     70  23  17 N14G23    30.23S
KEARNEY *      SUNNY     72  25  17 NW17G23   30.21R
YORK           SUNNY     72  36  26 NW17G24   30.17S
$$

NEZ011>018-030>034-042>045-252300-
NORTHEAST NEBRASKA

CITY           SKY/WX    TMP DP  RH WIND       PRES   REMARKS
NORFOLK        SUNNY     69  35  28 W17G29    30.13S
ALBION         SUNNY     69  33  26 NW21G26   30.18R
BLAIR          PTSUNNY   69  47  45 NW16G22   30.11F
FREMONT        PTSUNNY   70  44  39 NW17G23   30.13S
TEKAMAH        MOSUNNY   71  46  40 NW17G23   30.10F
WAYNE          SUNNY     68  40  35 NW17G28   30.12S
$$

NEZ050>053-065>068-078-088>093-252300-
SOUTHEAST NEBRASKA

CITY           SKY/WX    TMP DP  RH WIND       PRES   REMARKS
LINCOLN        MOSUNNY   74  44  34 NW21      30.14R
OMAHA EPPLEY   PTSUNNY   69  48  47 NW14      30.11S
BEATRICE       SUNNY     73  47  39 NW15G23   30.14S
FALLS CITY     CLOUDY    71  52  50 NW12      30.11S
NEBRASKA CITY  MOSUNNY   71  34  26 NW12G18   30.12S
PLATTSMOUTH    PTSUNNY   72  42  33 NW15G21   30.12S
$$

NEZ044-045-051>053-067-252300-
OMAHA AREA

CITY           SKY/WX    TMP DP  RH WIND       PRES   REMARKS
OMAHA EPPLEY   PTSUNNY   69  48  47 NW14      30.11S
BLAIR          PTSUNNY   69  47  45 NW16G22   30.11F
FREMONT        PTSUNNY   70  44  39 NW17G23   30.13S
MILLARD        PTSUNNY   71  47  42 NW14      30.11S
OFFUTT AFB     MOSUNNY   69  48  46 NW12G25   30.11S
PLATTSMOUTH    PTSUNNY   72  42  33 NW15G21   30.12S
WAHOO          FAIR      72  41  32 NW13G21   30.12F
$$



USA.gov is the U.S. government's official web portal to all federal, state and local government web resources and services.